Regional Weather Roundup
Issued by NWS Goodland, KS

Home | Current Version | Previous Version | Graphics & Text | Print | Product List | Glossary On
Versions: 1 2 3 4 5 6 7 8 9 10 11 12 13 14 15 16 17 18 19 20 21 22 23 24 25 26 27 28 29 30 31 32 33 34 35 36 37 38 39 40 41 42 43 44 45 46 47 48 49 50
000
ASUS43 KGLD 232008
RWRGLD

GOODLAND FORECAST AREA HOURLY WEATHER ROUNDUP
NATIONAL WEATHER SERVICE GOODLAND KS
200 PM MDT MON OCT 23 2017

...OFFICIAL OBSERVATIONS...

CITY           SKY/WX    TMP DP  RH WIND       PRES   REMARKS
GOODLAND KS    MOSUNNY   57  19  22 NW32G44   30.31F
HILL CITY KS   SUNNY     66  22  18 NW23G40   30.24F
IMPERIAL NEB   SUNNY     62  19  19 NW26G40   30.30F
MCCOOK NEB     SUNNY     65  19  17 N35G47    30.23F
AKRON CO       CLOUDY    53  20  27 N21G30    30.39F
BURLINGTON CO  SUNNY     56  22  26 N23G41    30.35S
LIMON CO       SUNNY     52  22  30 N20G32    30.41R
$$

...UNOFFICIAL OBSERVATIONS...

CITY           SKY/WX    TMP DP  RH WIND       PRES   REMARKS
COLBY KS       MOSUNNY   61  27  27 NW20G26   30.30F
LENORA KS        N/A     62  32  32 NW18G28     N/A
NORTON KS      SUNNY     64  10  12 NW22G31   30.22S
SHARON SPRINGS   N/A     60  23  24 NW20G30     N/A
TRIBUNE KS     SUNNY     63  19  19 N22G31    30.35
TRENTON NEB      N/A     62  32  32 NW20G26     N/A
KIT CARSON CO    N/A     56  25  30 MISG        N/A
YUMA CO        CLOUDY    54  21  28 N20G29    30.37F
$$




USA.gov is the U.S. government's official web portal to all federal, state and local government web resources and services.